Location: Lafig�re
(44.4503°N, 4.0357°E)
Time: 07:55:19
(UTC+00:00)

Cosmos 1092 Rocket - Pass Details

Date: 28 January 2021
Orbit: 954 x 994 km, 83.0° (Epoch: 08 March)

Event Time Altitude Azimuth Distance (km) Brightness Sun altitude
Rises 04:55:21 0° 351° (N) 3,646 6.9 -23.4°
Reaches altitude 10° 04:57:51 10° 352° (N) 2,698 6.2 -23.0°
Maximum altitude 05:04:03 88° 85° (E) 969 3.9 -21.9°
Drops below altitude 10° 05:10:14 10° 173° (S) 2,702 6.5 -20.8°
Sets 05:12:44 0° 174° (S) 3,650 7.2 -20.3°
